Retour au catalogue

CZ-6A DEB

ActifSSO
NORAD 54540·DEBRIS·🇨🇳 China

Lancé Nov 11, 2022 depuis Taiyuan Satellite Launch Center

Loading…

Prochains Passages (prochaines 24 heures)

TLE

FraisSource: Space-Track

Époque: Sep 13, 2026, 23:08 UTC

1 54540U 22151KQ  26256.96406647  .00000569  00000-0  29281-3 0  9997
2 54540  98.7824 263.9817 0052591  97.0028 263.7133 14.18383471198218

Suivez CZ-6A DEB en temps réel avec AllMySat

Download on the App Store